Location: Winnipeg
(49.8830°N, 97.1670°W)
Time: 03:20:31
(UTC-06:00)

ISS - Pass Details

Date: 27 January 2021
Orbit: 417 x 422 km, 51.6° (Epoch: 07 March)

Event Time Altitude Azimuth Distance (km) Brightness Sun altitude
Rises 20:21:33 0° 286° (WNW) 2,377 1.2 -29.8°
Reaches altitude 10° 20:23:40 10° 286° (WNW) 1,511 -0.1 -30.1°
Enters shadow 20:24:18 15° 286° (WNW) 1,250 -0.6 -30.2°
